PRBLS SBBH-SNTO

Flight info

Callsign PRBLS
Flight time 0h 46m
Altitude 29000
Route UTLI1A KADOR
Aircraft E55P/L-SDGRWY/L

Departure

Time 2026-05-06 20:19
Airport Pampulha - Carlos Drummond de Andrade Airport (SBBH)

Arrival

Time 2026-05-06 21:06
Airport Juscelino Kubitscheck Airport (SNTO)
Time Latitude Longitude Altitude Speed Heading
2026-05-06 19:38 -19.85428 -43.94590 2638 ft 0 kts 290°
2026-05-06 20:13 -19.85427 -43.94594 2638 ft 1 kts 290°
2026-05-06 20:13 -19.85414 -43.94608 2638 ft 4 kts 342°
2026-05-06 20:14 -19.85389 -43.94637 2638 ft 7 kts 285°
2026-05-06 20:14 -19.85367 -43.94704 2637 ft 12 kts 295°
2026-05-06 20:14 -19.85327 -43.94808 2637 ft 18 kts 290°
2026-05-06 20:14 -19.85282 -43.94953 2637 ft 22 kts 287°
2026-05-06 20:15 -19.85228 -43.95102 2637 ft 15 kts 332°
2026-05-06 20:15 -19.85116 -43.95123 2624 ft 11 kts 323°
2026-05-06 20:15 -19.85120 -43.95199 2624 ft 12 kts 260°
2026-05-06 20:15 -19.85133 -43.95307 2624 ft 16 kts 275°
2026-05-06 20:16 -19.85090 -43.95443 2624 ft 22 kts 290°
2026-05-06 20:16 -19.85028 -43.95611 2625 ft 27 kts 290°
2026-05-06 20:16 -19.84920 -43.95772 2626 ft 27 kts 317°
2026-05-06 20:16 -19.84827 -43.95937 2626 ft 26 kts 291°
2026-05-06 20:17 -19.84773 -43.96055 2625 ft 6 kts 342°
2026-05-06 20:17 -19.84730 -43.96045 2626 ft 6 kts 40°
2026-05-06 20:17 -19.84729 -43.95998 2626 ft 6 kts 116°
2026-05-06 20:17 -19.84735 -43.95983 2626 ft 0 kts 111°
2026-05-06 20:18 -19.84736 -43.95979 2626 ft 9 kts 111°
2026-05-06 20:18 -19.84857 -43.95636 2629 ft 88 kts 111°
2026-05-06 20:18 -19.85155 -43.94804 2637 ft 146 kts 111°
2026-05-06 20:19 -19.85565 -43.93721 3009 ft 166 kts 109°
2026-05-06 20:19 -19.85976 -43.92504 3466 ft 191 kts 105°
2026-05-06 20:19 -19.86433 -43.91093 3960 ft 215 kts 110°
2026-05-06 20:19 -19.86990 -43.89548 4580 ft 233 kts 110°
2026-05-06 20:20 -19.87577 -43.87908 5264 ft 246 kts 110°
2026-05-06 20:20 -19.88193 -43.86205 5997 ft 256 kts 109°
2026-05-06 20:20 -19.88837 -43.84412 6777 ft 264 kts 109°
2026-05-06 20:20 -19.89499 -43.82584 7572 ft 270 kts 109°
2026-05-06 20:21 -19.90174 -43.80712 8402 ft 274 kts 109°
2026-05-06 20:21 -19.90849 -43.78841 9228 ft 278 kts 110°
2026-05-06 20:21 -19.91539 -43.76926 10163 ft 278 kts 110°
2026-05-06 20:21 -19.92225 -43.75023 11008 ft 280 kts 110°
2026-05-06 20:22 -19.92723 -43.73015 11718 ft 285 kts 89°
2026-05-06 20:22 -19.92200 -43.71033 12427 ft 287 kts 58°
2026-05-06 20:22 -19.90856 -43.69474 13185 ft 290 kts 46°
2026-05-06 20:22 -19.89515 -43.67875 13903 ft 294 kts 48°
2026-05-06 20:23 -19.88117 -43.66206 14137 ft 311 kts 49°
2026-05-06 20:23 -19.86668 -43.64460 14158 ft 311 kts 48°
2026-05-06 20:23 -19.85267 -43.62742 14150 ft 311 kts 46°
2026-05-06 20:23 -19.83534 -43.61358 14314 ft 317 kts 36°
2026-05-06 20:24 -19.81781 -43.59995 15266 ft 310 kts 36°
2026-05-06 20:24 -19.80057 -43.58684 16192 ft 305 kts 37°
2026-05-06 20:24 -19.78310 -43.57346 16782 ft 312 kts 37°
2026-05-06 20:24 -19.76543 -43.55996 17310 ft 320 kts 37°
2026-05-06 20:25 -19.74709 -43.54595 17917 ft 325 kts 37°
2026-05-06 20:25 -19.72893 -43.53207 18541 ft 328 kts 37°
2026-05-06 20:25 -19.71034 -43.51787 19166 ft 331 kts 37°
2026-05-06 20:25 -19.69131 -43.50335 19757 ft 336 kts 37°
2026-05-06 20:26 -19.67252 -43.48902 20330 ft 339 kts 37°
2026-05-06 20:26 -19.65320 -43.47429 20918 ft 343 kts 37°
2026-05-06 20:26 -19.63362 -43.45939 21476 ft 347 kts 37°
2026-05-06 20:26 -19.61408 -43.44450 22036 ft 350 kts 37°
2026-05-06 20:27 -19.59407 -43.42926 22589 ft 353 kts 37°
2026-05-06 20:27 -19.57446 -43.41433 23410 ft 346 kts 37°
2026-05-06 20:27 -19.55508 -43.39958 24060 ft 345 kts 37°
2026-05-06 20:27 -19.53544 -43.38463 24480 ft 352 kts 37°
2026-05-06 20:28 -19.51514 -43.36919 24870 ft 359 kts 37°
2026-05-06 20:28 -19.49490 -43.35379 25353 ft 363 kts 37°
2026-05-06 20:28 -19.47406 -43.33796 25833 ft 366 kts 37°
2026-05-06 20:28 -19.45335 -43.32220 26295 ft 370 kts 37°
2026-05-06 20:29 -19.43231 -43.30622 26693 ft 375 kts 37°
2026-05-06 20:29 -19.41104 -43.28991 27136 ft 378 kts 39°
2026-05-06 20:29 -19.39204 -43.27080 27526 ft 381 kts 48°
2026-05-06 20:29 -19.37309 -43.25064 27963 ft 384 kts 47°
2026-05-06 20:30 -19.35436 -43.23084 28361 ft 388 kts 47°
2026-05-06 20:30 -19.31570 -43.19001 29068 ft 398 kts 47°
2026-05-06 20:30 -19.29568 -43.16884 29107 ft 411 kts 47°
2026-05-06 20:31 -19.27505 -43.14711 29111 ft 422 kts 47°
2026-05-06 20:31 -19.23305 -43.10285 29100 ft 434 kts 47°
2026-05-06 20:32 -19.18981 -43.05734 29097 ft 444 kts 47°
2026-05-06 20:32 -19.14550 -43.01070 29096 ft 452 kts 47°
2026-05-06 20:33 -19.10066 -42.96359 29098 ft 458 kts 47°
2026-05-06 20:33 -19.05502 -42.91563 29099 ft 464 kts 47°
2026-05-06 20:34 -19.00894 -42.86729 29098 ft 468 kts 47°
2026-05-06 20:34 -18.96286 -42.81899 29104 ft 471 kts 47°
2026-05-06 20:35 -18.91646 -42.76936 29104 ft 472 kts 52°
2026-05-06 20:35 -18.87413 -42.71609 29117 ft 474 kts 52°
2026-05-06 20:36 -18.83147 -42.66334 29125 ft 475 kts 52°
2026-05-06 20:36 -18.78853 -42.61027 29136 ft 476 kts 52°
2026-05-06 20:37 -18.74533 -42.55699 29061 ft 479 kts 52°
2026-05-06 20:37 -18.72371 -42.53032 28776 ft 486 kts 52°
2026-05-06 20:37 -18.70163 -42.50309 28500 ft 491 kts 52°
2026-05-06 20:37 -18.67918 -42.47544 28196 ft 495 kts 52°
2026-05-06 20:38 -18.65706 -42.44820 27641 ft 489 kts 52°
2026-05-06 20:38 -18.63493 -42.42094 26880 ft 486 kts 51°
2026-05-06 20:38 -18.61313 -42.39415 26131 ft 482 kts 51°
2026-05-06 20:38 -18.59164 -42.36769 25388 ft 477 kts 51°
2026-05-06 20:39 -18.57029 -42.34143 24642 ft 471 kts 50°
2026-05-06 20:39 -18.54887 -42.31513 23886 ft 466 kts 50°
2026-05-06 20:39 -18.52813 -42.28970 23150 ft 460 kts 50°
2026-05-06 20:39 -18.50725 -42.26408 22403 ft 454 kts 50°
2026-05-06 20:40 -18.48685 -42.23905 21675 ft 447 kts 50°
2026-05-06 20:40 -18.46704 -42.21472 20978 ft 441 kts 50°
2026-05-06 20:40 -18.44718 -42.19041 20271 ft 435 kts 50°
2026-05-06 20:40 -18.42761 -42.16640 19568 ft 429 kts 50°
2026-05-06 20:41 -18.40819 -42.14259 18873 ft 423 kts 50°
2026-05-06 20:41 -18.38941 -42.11962 18251 ft 415 kts 50°
2026-05-06 20:41 -18.37060 -42.09655 17662 ft 408 kts 50°
2026-05-06 20:41 -18.35239 -42.07426 17079 ft 401 kts 50°
2026-05-06 20:42 -18.33425 -42.05205 16488 ft 395 kts 50°
2026-05-06 20:42 -18.31664 -42.03050 15905 ft 389 kts 50°
2026-05-06 20:42 -18.29924 -42.00921 15335 ft 382 kts 50°
2026-05-06 20:42 -18.28191 -41.98803 14787 ft 376 kts 49°
2026-05-06 20:43 -18.26512 -41.96751 14251 ft 370 kts 49°
2026-05-06 20:43 -18.24835 -41.94706 13706 ft 365 kts 49°
2026-05-06 20:43 -18.23205 -41.92716 13175 ft 360 kts 49°
2026-05-06 20:43 -18.21585 -41.90742 12637 ft 355 kts 49°
2026-05-06 20:44 -18.19970 -41.88769 12093 ft 351 kts 49°
2026-05-06 20:44 -18.18400 -41.86848 11554 ft 347 kts 49°
2026-05-06 20:44 -18.16831 -41.84938 11067 ft 341 kts 50°
2026-05-06 20:44 -18.15303 -41.83070 10593 ft 336 kts 50°
2026-05-06 20:45 -18.13786 -41.81225 10125 ft 331 kts 50°
2026-05-06 20:45 -18.13296 -41.80625 9964 ft 330 kts 50°
2026-05-06 20:45 -18.10817 -41.77601 9162 ft 323 kts 49°
2026-05-06 20:45 -18.09841 -41.76427 8850 ft 321 kts 50°
2026-05-06 20:46 -18.07912 -41.74070 8228 ft 316 kts 50°
2026-05-06 20:46 -18.06489 -41.72337 7744 ft 313 kts 49°
2026-05-06 20:46 -18.05071 -41.70611 7266 ft 310 kts 50°
2026-05-06 20:46 -18.03671 -41.68910 6797 ft 308 kts 51°
2026-05-06 20:47 -18.02285 -41.67222 6314 ft 305 kts 51°
2026-05-06 20:47 -18.00912 -41.65512 5824 ft 301 kts 54°
2026-05-06 20:47 -18.00169 -41.63510 5419 ft 293 kts 82°
2026-05-06 20:47 -17.99837 -41.61428 5135 ft 284 kts 78°
2026-05-06 20:48 -17.99479 -41.59417 4847 ft 278 kts 79°
2026-05-06 20:48 -17.99097 -41.57460 4596 ft 273 kts 74°
2026-05-06 20:48 -17.98363 -41.55651 4321 ft 268 kts 65°
2026-05-06 20:48 -17.97616 -41.53869 4034 ft 263 kts 68°
2026-05-06 20:49 -17.96857 -41.52116 3711 ft 260 kts 66°
2026-05-06 20:49 -17.96123 -41.50421 3436 ft 256 kts 67°
2026-05-06 20:49 -17.95381 -41.48701 3159 ft 252 kts 67°
2026-05-06 20:49 -17.94632 -41.47050 2850 ft 251 kts 57°
2026-05-06 20:50 -17.93340 -41.45879 2632 ft 243 kts 34°
2026-05-06 20:50 -17.91917 -41.45021 2543 ft 223 kts 24°
2026-05-06 20:50 -17.90461 -41.44703 2565 ft 207 kts
2026-05-06 20:50 -17.89074 -41.44621 2564 ft 193 kts
2026-05-06 20:51 -17.87863 -41.45146 2595 ft 188 kts 317°
2026-05-06 20:51 -17.87370 -41.46351 2631 ft 176 kts 271°
2026-05-06 20:51 -17.87605 -41.47535 2524 ft 169 kts 241°
2026-05-06 20:51 -17.88329 -41.48480 2422 ft 158 kts 213°
2026-05-06 20:52 -17.89320 -41.48797 2343 ft 146 kts 163°
2026-05-06 20:52 -17.90280 -41.48488 2240 ft 147 kts 160°
2026-05-06 20:52 -17.91284 -41.48622 2293 ft 148 kts 205°
2026-05-06 20:52 -17.92138 -41.49316 2220 ft 159 kts 230°
2026-05-06 20:53 -17.92496 -41.50345 2317 ft 160 kts 273°
2026-05-06 20:53 -17.92170 -41.51549 2440 ft 182 kts 300°
2026-05-06 20:53 -17.91320 -41.52537 2647 ft 183 kts 332°
2026-05-06 20:53 -17.90170 -41.53046 2840 ft 174 kts 351°
2026-05-06 20:54 -17.88976 -41.53157 2856 ft 171 kts
2026-05-06 20:54 -17.87776 -41.53089 2745 ft 173 kts 11°
2026-05-06 20:54 -17.86575 -41.52879 2666 ft 175 kts 17°
2026-05-06 20:54 -17.85464 -41.52418 2667 ft 165 kts 38°
2026-05-06 20:55 -17.84771 -41.51556 2485 ft 151 kts 68°
2026-05-06 20:55 -17.84616 -41.50500 2290 ft 150 kts 94°
2026-05-06 20:55 -17.84927 -41.49426 2222 ft 153 kts 115°
2026-05-06 20:55 -17.85547 -41.48562 2131 ft 150 kts 132°
2026-05-06 20:56 -17.86503 -41.48095 2080 ft 148 kts 162°
2026-05-06 20:56 -17.87527 -41.48198 2109 ft 146 kts 191°
2026-05-06 20:56 -17.88489 -41.48538 1970 ft 142 kts 203°
2026-05-06 20:56 -17.89273 -41.49108 1864 ft 132 kts 239°
2026-05-06 20:57 -17.89308 -41.50007 1686 ft 130 kts 280°
2026-05-06 20:57 -17.89270 -41.50979 1645 ft 139 kts 275°
2026-05-06 20:57 -17.88991 -41.52088 2121 ft 174 kts 306°
2026-05-06 20:57 -17.87993 -41.52953 2407 ft 189 kts 337°
2026-05-06 20:58 -17.86791 -41.53561 2422 ft 192 kts 330°
2026-05-06 20:58 -17.85633 -41.54242 2443 ft 192 kts 336°
2026-05-06 20:58 -17.84690 -41.55213 2597 ft 187 kts 300°
2026-05-06 20:58 -17.84526 -41.56465 2855 ft 169 kts 249°
2026-05-06 20:59 -17.85300 -41.57326 2785 ft 162 kts 203°
2026-05-06 20:59 -17.86394 -41.57634 2639 ft 167 kts 179°
2026-05-06 20:59 -17.87371 -41.57174 2598 ft 148 kts 128°
2026-05-06 20:59 -17.87987 -41.56377 2500 ft 131 kts 125°
2026-05-06 21:00 -17.88499 -41.55599 2355 ft 126 kts 120°
2026-05-06 21:00 -17.89008 -41.54859 2232 ft 118 kts 114°
2026-05-06 21:00 -17.89068 -41.54067 2107 ft 106 kts 86°
2026-05-06 21:00 -17.89120 -41.53241 1906 ft 126 kts 89°
2026-05-06 21:01 -17.89177 -41.52355 1754 ft 122 kts 88°
2026-05-06 21:01 -17.89212 -41.51518 1593 ft 106 kts 91°
2026-05-06 21:01 -17.89247 -41.50736 1678 ft 130 kts 96°
2026-05-06 21:01 -17.89223 -41.49766 2165 ft 141 kts 67°
2026-05-06 21:02 -17.88479 -41.49077 2288 ft 155 kts 18°
2026-05-06 21:02 -17.87329 -41.49217 2397 ft 182 kts 332°
2026-05-06 21:02 -17.86419 -41.50168 2708 ft 199 kts 300°
2026-05-06 21:02 -17.86009 -41.51642 2794 ft 226 kts 273°
2026-05-06 21:03 -17.86231 -41.53325 3012 ft 235 kts 255°
2026-05-06 21:03 -17.86669 -41.54942 3138 ft 226 kts 251°
2026-05-06 21:03 -17.87243 -41.56454 3305 ft 215 kts 234°
2026-05-06 21:03 -17.88298 -41.57442 3422 ft 201 kts 202°
2026-05-06 21:04 -17.89544 -41.57540 3406 ft 166 kts 149°
2026-05-06 21:04 -17.90060 -41.56697 3026 ft 145 kts 69°
2026-05-06 21:04 -17.89655 -41.55744 2579 ft 137 kts 66°
2026-05-06 21:04 -17.89229 -41.54892 2284 ft 124 kts 74°
2026-05-06 21:05 -17.89128 -41.54023 2047 ft 111 kts 91°
2026-05-06 21:05 -17.89127 -41.53200 1810 ft 112 kts 90°
2026-05-06 21:05 -17.89175 -41.52398 1681 ft 105 kts 86°
2026-05-06 21:05 -17.89199 -41.51677 1614 ft 91 kts 97°
2026-05-06 21:06 -17.89238 -41.51168 1560 ft 39 kts 89°
2026-05-06 21:06 -17.89236 -41.51075 1556 ft 1 kts 320°
2026-05-06 21:06 -17.89232 -41.51109 1558 ft 9 kts 274°
2026-05-06 21:06 -17.89229 -41.51218 1562 ft 20 kts 272°
2026-05-06 21:07 -17.89222 -41.51379 1568 ft 17 kts 268°
2026-05-06 21:07 -17.89250 -41.51410 1568 ft 0 kts 186°
2026-05-06 21:07 -17.89257 -41.51411 1567 ft 4 kts 185°
2026-05-06 21:08 -17.89288 -41.51427 1565 ft 6 kts 262°
2026-05-06 21:08 -17.89297 -41.51468 1565 ft 6 kts 212°
2026-05-06 21:08 -17.89299 -41.51486 1565 ft 0 kts 14°
2026-05-06 21:08 -17.89295 -41.51485 1565 ft 1 kts 11°
2026-05-06 21:09 -17.89286 -41.51476 1565 ft 0 kts 96°